Miscellaneous Local Product
Issued by NWS Hastings, NE

Home | Current Version | Previous Version | Graphics & Text | Print | Product List | Glossary Off
Versions: 1 2 3 4 5 6 7 8 9 10 11 12 13 14 15 16 17 18 19 20 21 22 23 24 25 26 27 28 29 30 31 32 33 34 35 36 37 38 39 40 41 42 43 44 45 46 47 48 49 50

000
AXUS43 KGID 020302
MISGRI

GID CWA HOURLY WEATHER ROUNDUP
NATIONAL WEATHER SERVICE HASTINGS NE
1000 PM CDT WED JUL 01 2015

NOTE: "FAIR" INDICATES FEW OR NO CLOUDS BELOW 12,000 FEET WITH NO
SIGNIFICANT WEATHER AND/OR OBSTRUCTIONS TO VISIBILITY.

...SOUTH CENTRAL NEBRASKA...

CITY           SKY/WX    TMP DP  RH WIND       PRES   REMARKS
GRAND ISLAND   CLEAR     75  68  78 NE6       29.90R
HASTINGS       CLEAR     77  68  73 E5        29.90R
KEARNEY        PTCLDY    75  68  78 E5        29.91S
YORK           PTCLDY    75  72  88 E10       29.90R
AURORA         CLEAR     75  72  89 E9        29.90R
LEXINGTON      MOCLDY    79  68  70 SE6       29.92S
HOLDREGE       MOCLDY    75  67  76 E6        29.91F
HEBRON         CLEAR     78  69  73 NE3       29.87R

...NEBRASKA PANHANDLE...

CITY           SKY/WX    TMP DP  RH WIND       PRES   REMARKS
CHADRON        CLEAR     73  62  68 E7        29.98S
ALLIANCE       CLOUDY    75  60  59 E5        30.03R
SCOTTSBLUFF    LGT RAIN  70 N/A N/A CALM      30.05R
SIDNEY         CLOUDY    75  56  51 SW9       30.07R

...WESTERN AND NORTH CENTRAL NEBRASKA...

CITY           SKY/WX    TMP DP  RH WIND       PRES   REMARKS
VALENTINE      CLEAR     70  65  84 W5        29.96S
AINSWORTH      CLEAR     71  64  78 CALM      29.96S
ONEILL         CLOUDY    73  69  87 E13       29.94R
BROKEN BOW     PTCLDY    75  66  73 E9        29.94R
IMPERIAL       CLOUDY    77  59  53 E7        29.98R
NORTH PLATTE   MOCLDY    73  60  63 NE8       29.95R
MCCOOK         CLOUDY    82  66  58 E6        29.93R

...EASTERN NEBRASKA...

CITY           SKY/WX    TMP DP  RH WIND       PRES   REMARKS
NORFOLK        CLEAR     71  67  87 E9        29.93R
SO SIOUX CITY  CLEAR     69  61  75 E8        29.94R
TEKAMAH        CLEAR     72  66  81 E7        29.92R
COLUMBUS       MOCLDY   N/A N/A N/A E8        29.91R
ALBION         MOCLDY    72  65  77 E7        29.93R
OMAHA EPPLEY   PTCLDY    73  66  78 NE8       29.90R
OFFUTT AFB     PTCLDY    72  67  84 NE9       29.89R
MILLARD        PTCLDY    75  68  79 E7        29.90R
LINCOLN        CLOUDY    78  69  73 E10       29.89R
NEBRASKA CITY  CLOUDY    75  66  74 NE10      29.89R
BEATRICE       CLEAR     76  71  84 E6        29.86S
FALLS CITY     PTCLDY    77  71  82 NE10      29.85R

...NORTHERN KANSAS...

CITY           SKY/WX    TMP DP  RH WIND       PRES   REMARKS
GOODLAND       CLOUDY    75  63  66 S8        29.99F THUNDER
HILL CITY      MOCLDY    81  57  43 NE7       29.91R
NORTON         CLEAR     79  57  47 NE3       29.91S
PHILLIPSBURG   CLEAR     84  64  51 N6        29.89S
SMITH CENTER   CLEAR     79  66  65 NE6       29.89R
HAYS           MOCLDY    82  61  47 NE7       29.89R
RUSSELL        MOCLDY    81  64  56 NE8       29.86R
CONCORDIA      CLEAR     80  70  71 NE8       29.86R
SALINA         PTCLDY    87  67  51 N9        29.82R HX  90
TOPEKA         CLEAR     80  75  84 NE8       29.81R



USA.gov is the U.S. government's official web portal to all federal, state and local government web resources and services.